Location: Bathurst
(33.4193°S, 149.5775°E)
Time: 22:51:08
(UTC+10:00)

Vanguard 3 - Pass Details

Date: 25 June 2021
Orbit: 508 x 3261 km, 33.4° (Epoch: 25 July)

Event Time Altitude Azimuth Distance (km) Brightness Sun altitude
Rises 19:08:34 0° 272° (W) 6,554 13.1 -25.5°
Reaches altitude 10° 19:12:31 10° 271° (W) 5,774 12.4 -26.3°
Maximum altitude 19:32:04 90° 323° (NW) 3,255 9.9 -30.3°
Enters shadow 19:40:26 46° 87° (E) 3,775 9.9 -32.0°
